Temperature
19 19 19 19 19 19 19 18 19 19 19 19 19 19 19 18 18 18 18 18 18 18 18 18 18 18 18 18 18 18 18 18 18 18 18 18 18 18 18 18 18 17 18
19 19 19 19 19 19 19 18 19 19 19 19 19 18 18 18 18 18 18 18 18 18 18 18 18 18 18 18 18 18 18 18 18 18 18 18 18 18 18 18 17 17 18
19 19 19 19 19 19 18 18 19 19 19 19 18 18 18 18 18 18 18 18 18 18 18 18 18 18 18 18 18 18 18 18 18 18 18 17 17 18 18 18 18 18 17
19 19 18 19 19 18 18 18 18 18 18 18 18 18 18 18 18 18 18 18 18 18 18 18 18 18 18 18 18 18 18 18 18 18 17 17 17 17 18 17 17 17 17
19 19 18 19 19 18 18 18 18 18 18 18 18 18 18 18 18 18 18 18 18 18 18 18 18 18 18 18 18 18 18 18 18 18 17 17 17 18 17 17 17 17 17
19 19 18 19 19 18 18 18 18 18 18 18 18 18 18 18 18 18 18 18 18 18 18 18 18 18 18 18 18 18 18 18 18 17 17 17 17 17 17 17 17 17 17
19 19 19 19 19 18 18 18 18 18 18 18 18 18 18 18 18 18 18 18 18 18 18 18 18 18 18 18 18 18 18 18 18 18 17 17 17 17 17 17 17 17 17
19 19 18 19 19 19 18 18 18 18 18 18 18 18 18 18 18 18 18 18 18 18 18 18 18 18 18 18 18 18 18 18 18 17 17 17 17 17 17 17 17 17 17
19 19 19 19 19 19 19 19 18 18 18 18 18 18 18 18 18 18 18 18 18 18 18 18 18 18 18 18 18 18 18 18 18 18 17 17 17 17 17 17 17 17 17
19 19 19 19 19 18 18 19 19 18 18 18 18 18 18 18 18 18 18 18 18 18 18 18 18 18 18 18 18 18 18 18 18 18 17 17 17 17 17 17 17 17 17
19 19 19 19 19 19 18 18 18 18 18 18 18 18 18 18 18 18 18 18 18 18 18 18 18 18 18 18 18 18 18 18 18 18 17 17 17 17 17 17 17 17 17
19 19 19 19 19 19 19 18 18 18 18 18 18 18 18 18 18 18 18 18 18 18 18 18 18 18 18 18 18 18 18 18 18 18 17 18 17 17 17 17 17 17 17
19 19 19 19 19 19 19 18 18 18 18 18 18 18 18 18 18 18 18 18 18 18 18 18 18 18 18 18 18 18 18 18 18 18 17 18 17 17 17 17 17 17 17
19 19 19 19 19 18 18 19 18 18 18 18 18 18 18 18 18 18 18 18 18 18 18 18 18 18 18 18 18 18 18 18 18 18 17 18 17 17 17 17 17 17 17
19 19 19 19 18 18 18 18 18 18 18 18 18 18 18 18 18 18 18 18 18 18 18 18 18 18 18 18 18 18 18 18 18 18 17 18 18 17 17 17 17 17 17
19 19 19 19 18 18 18 18 18 18 18 18 18 18 18 18 18 18 18 18 18 18 18 18 18 18 18 18 18 18 18 18 17 17 17 17 17 17 17 17 17 17 17
19 19 19 19 19 18 18 18 18 18 19 19 18 18 18 18 18 18 18 18 18 18 18 18 18 18 18 18 18 18 18 18 17 17 17 17 17 17 17 17 17 17 17
19 19 19 19 19 19 19 18 18 19 18 18 18 18 18 18 18 18 18 18 18 18 18 18 18 18 18 18 18 18 18 18 17 17 17 17 17 17 17 17 17 17 17
19 19 19 19 19 19 19 19 18 18 18 18 18 18 18 18 18 18 18 18 18 18 18 19 18 18 18 18 19 18 18 18 18 18 17 17 17 17 17 17 17 17 17
20 19 19 19 19 19 19 19 19 19 18 18 18 18 18 18 18 18 18 18 18 18 18 18 18 18 18 18 19 19 18 18 18 18 18 18 17 17 17 17 17 17 17
20 19 19 19 19 19 19 19 19 19 19 18 18 18 18 18 18 18 18 18 18 18 18 18 18 18 18 18 19 19 19 19 18 18 18 18 18 17 17 17 17 17 17
20 19 19 19 19 19 19 19 19 19 18 18 18 18 18 18 18 18 18 18 18 18 18 18 18 18 19 18 19 20 20 20 19 19 18 18 18 18 17 17 17 17 17
20 20 20 19 19 19 19 19 18 18 19 19 18 18 18 18 18 18 18 18 18 18 18 18 18 18 18 18 18 19 20 21 20 19 18 18 18 18 18 17 17 17 17
21 20 20 20 19 19 19 19 19 19 19 18 18 18 18 18 18 18 18 18 18 18 18 18 18 18 18 19 19 18 19 19 19 20 19 19 18 18 18 18 17 17 17
21 21 20 20 20 20 19 19 19 19 19 19 18 18 18 18 18 18 18 18 18 18 18 18 18 18 18 18 19 19 18 18 19 19 19 19 19 18 18 18 17 17 17
22 21 20 20 20 20 19 19 19 19 19 18 18 18 18 18 18 18 18 18 18 18 18 18 18 18 18 18 18 18 19 19 19 19 19 19 19 19 18 18 18 17 17
Wind_Speed
5 8 10 10 11 11 11 11 11 12 12 12 13 13 13 13 13 13 12 12 12 12 11 11 11 11 10 9 8 6 6 7 8 9 8 8 8 8 8 8 8 8 10
7 9 11 10 11 11 11 11 11 11 12 12 13 12 12 12 12 12 11 11 11 11 11 11 10 10 9 9 7 6 7 7 8 9 9 9 9 8 7 6 4 7 9
8 10 11 11 11 11 11 11 10 10 11 11 12 11 11 11 11 11 10 10 10 10 10 9 9 9 9 8 7 7 8 9 9 9 8 7 8 8 7 7 7 8 8
9 9 11 11 10 10 11 10 10 9 10 11 11 10 10 11 10 10 10 10 10 10 9 9 8 8 8 7 7 7 8 8 7 6 5 5 6 8 7 7 7 7 8
9 10 13 10 9 9 10 10 9 9 9 10 10 10 10 10 10 9 10 9 9 9 8 8 7 7 7 7 7 7 6 5 5 4 4 4 5 7 6 6 6 7 7
9 10 13 9 9 9 10 10 9 9 9 9 9 10 9 9 9 9 10 9 9 9 8 8 8 8 7 7 6 6 5 4 5 4 4 4 5 6 5 5 6 7 7
9 10 12 10 9 9 9 10 10 9 8 9 9 9 9 10 9 9 9 9 9 9 9 9 8 8 7 7 6 6 4 3 1 4 3 4 5 6 5 5 5 5 6
9 9 12 11 9 9 9 9 9 8 8 8 8 9 9 9 9 9 9 10 10 10 9 9 8 8 7 6 6 6 3 4 2 3 3 5 6 6 5 5 4 5 5
8 8 8 10 10 10 9 8 8 8 8 8 8 8 8 9 9 9 9 9 9 8 8 7 7 7 6 6 6 5 2 4 1 3 3 4 6 5 5 4 4 5 5
6 7 6 7 8 8 10 10 9 8 8 7 7 7 7 8 9 8 8 9 8 7 7 7 6 6 6 6 5 3 1 4 2 3 3 6 7 5 4 4 4 4 4
6 5 5 6 7 6 7 9 9 8 8 7 7 6 5 6 7 8 9 8 7 6 6 6 5 4 4 6 5 3 4 0 3 3 5 8 6 4 4 4 4 4 4
7 5 5 5 5 5 6 6 5 6 6 5 4 4 4 5 5 6 9 7 6 6 6 5 4 4 4 4 6 6 1 2 2 4 7 7 4 4 4 4 4 4 4
6 5 5 5 4 4 4 4 3 4 4 4 5 4 4 3 4 5 5 6 6 6 5 6 4 2 3 3 2 2 3 2 3 4 8 7 4 3 4 4 3 4 4
5 5 5 5 4 3 2 3 3 3 3 3 4 3 3 2 2 3 2 3 3 3 3 2 2 3 2 3 2 3 3 2 3 4 7 7 4 4 4 3 3 4 5
5 5 5 5 5 4 3 1 3 2 2 4 3 3 2 2 2 3 3 2 2 3 3 2 2 2 1 2 2 3 3 3 3 3 5 7 4 3 3 2 3 4 5
5 5 5 5 5 4 4 3 2 2 3 3 3 3 2 2 2 2 2 2 2 2 2 2 2 1 1 1 2 2 2 3 3 2 3 5 6 4 3 2 3 3 4
6 6 6 6 5 4 4 3 3 2 3 3 3 4 2 2 2 1 1 1 2 2 3 2 1 1 1 1 2 2 2 1 1 1 1 1 4 6 5 3 2 2 3
5 6 5 5 6 5 3 2 2 1 2 2 3 3 3 2 2 2 1 1 1 1 1 1 1 1 1 1 1 1 1 1 1 1 1 1 0 2 5 5 4 3 3
5 6 6 5 5 5 4 3 2 2 1 1 2 2 3 3 2 2 1 1 2 1 0 0 2 0 0 0 1 1 1 1 1 1 1 0 0 0 2 6 6 5 4
6 6 6 6 5 5 5 4 2 2 2 2 1 2 2 3 2 2 2 1 1 1 0 0 1 0 1 1 1 1 1 0 1 1 1 1 1 1 1 2 4 5 6
7 7 6 6 6 5 4 3 3 3 2 2 2 1 2 2 1 2 1 2 1 1 1 1 1 2 1 1 1 1 2 2 1 1 1 0 1 1 1 1 1 1 4
8 7 7 7 7 6 4 3 2 2 2 2 1 1 1 1 1 2 2 2 1 1 1 1 2 2 1 1 2 2 1 3 3 2 1 1 1 1 1 2 1 2 2
9 8 7 7 7 6 5 4 3 3 3 2 2 2 2 2 2 1 1 2 2 2 1 2 2 2 1 1 2 3 2 1 0 2 2 1 1 1 1 1 2 2 2
9 9 8 8 7 7 6 5 5 4 3 2 2 2 2 2 2 2 2 2 2 2 1 2 1 2 2 2 1 2 3 3 2 1 2 2 2 1 1 1 1 2 2
9 8 8 8 7 7 6 6 6 5 3 2 2 2 2 2 2 2 1 1 2 2 1 1 1 3 2 3 2 2 2 2 3 3 2 1 1 1 1 2 1 1 2
9 9 8 8 7 7 7 6 6 5 4 3 3 3 3 2 2 2 2 2 2 2 2 2 2 3 2 3 3 3 3 2 2 2 3 3 2 1 2 2 2 2 2
Wind_Direction
98 98 100 101 103 104 104 105 108 110 112 116 118 118 117 117 117 118 119 121 123 123 124 124 123 122 121 120 117 118 128 139 142 139 138 138 137 141 146 158 164 145 133
104 102 106 104 105 103 102 102 104 107 107 111 116 118 119 121 121 120 121 121 123 124 124 121 121 120 117 113 110 112 123 132 140 145 149 148 143 144 148 156 151 128 143
105 107 110 103 104 104 102 100 99 102 102 106 112 116 118 120 124 126 125 123 124 123 121 122 121 116 112 109 105 103 113 122 134 150 174 154 139 140 147 149 142 141 150
102 103 100 101 104 105 106 103 100 102 104 106 110 115 117 118 120 125 126 125 124 123 123 122 120 117 115 110 105 105 111 120 135 173 167 134 132 129 150 159 156 154 159
101 103 102 105 106 107 109 108 105 101 105 109 111 114 116 116 118 117 115 117 121 120 119 117 115 112 112 108 105 107 113 130 157 180 115 124 123 126 145 156 157 161 165
116 110 106 108 103 103 107 109 107 103 105 113 115 114 114 116 118 117 113 114 112 114 113 111 108 106 110 108 107 114 122 153 201 129 121 120 115 120 135 148 154 160 164
113 110 110 107 103 100 101 105 108 107 105 107 116 114 112 113 114 113 111 111 109 110 109 106 102 103 107 110 111 117 128 200 183 115 124 113 104 116 127 141 152 161 164
111 110 111 116 109 103 103 105 105 105 106 105 106 113 114 112 111 108 107 108 109 106 103 102 100 101 103 108 111 109 119 265 147 114 115 100 102 122 129 133 141 157 163
111 112 112 118 121 123 113 105 106 104 107 108 104 108 115 117 116 113 112 111 108 105 103 102 101 101 100 104 112 108 105 296 317 107 118 108 121 136 140 146 152 157 166
115 111 113 113 113 121 122 114 107 105 105 107 106 105 117 132 130 129 126 109 105 103 104 103 102 105 106 107 113 122 188 255 65 97 105 109 129 143 150 156 162 158 157
120 119 121 119 116 118 114 120 126 125 120 129 127 134 151 134 126 128 95 100 105 109 112 110 105 118 140 136 131 169 219 138 73 70 78 98 128 148 158 166 169 168 163
132 134 132 127 119 123 117 122 128 124 118 114 109 119 110 104 108 110 116 118 120 131 138 128 138 172 203 136 144 191 148 81 78 83 87 100 118 148 161 160 163 171 175
136 135 132 126 132 128 124 129 116 113 119 125 119 122 112 119 126 125 131 140 138 154 141 142 175 136 98 80 71 86 67 61 63 71 90 96 104 138 151 152 161 177 180
139 137 132 129 125 121 116 119 133 129 128 128 127 130 120 111 111 108 108 105 123 118 112 114 113 90 76 78 72 64 80 77 72 70 89 95 99 122 141 154 166 174 173
139 144 137 136 130 137 136 159 123 123 129 128 128 119 118 123 118 110 101 104 105 111 123 106 89 90 88 105 85 72 68 73 63 65 98 108 114 120 134 145 157 167 171
146 148 148 154 146 152 150 148 138 136 140 142 137 128 135 116 113 134 132 104 102 105 92 94 102 120 100 77 79 83 68 71 79 64 91 124 132 131 132 141 159 163 172
153 153 157 164 156 163 161 164 152 157 153 150 138 142 157 143 135 156 124 123 87 98 111 116 108 124 131 125 109 102 107 86 81 82 81 100 140 145 140 137 144 162 177
157 158 168 167 159 166 169 174 161 156 146 157 157 156 166 158 172 202 169 117 113 129 132 116 138 88 79 122 122 122 120 134 140 141 142 151 161 137 147 150 158 169 186
169 168 171 168 169 171 168 172 179 168 175 185 176 176 168 186 197 214 182 130 178 178 216 306 85 9 125 100 155 161 175 178 149 142 114 117 120 172 139 147 167 176 184
175 176 176 173 174 178 177 178 187 179 181 182 195 181 194 198 207 244 192 176 221 197 192 81 91 288 275 262 275 120 235 190 179 129 211 148 152 178 165 143 169 173 182
178 181 184 183 177 188 187 193 188 188 186 182 197 180 209 228 202 239 261 177 234 211 264 231 235 191 220 247 246 208 176 172 152 169 218 210 156 159 159 167 204 174 173
182 185 185 187 186 194 189 199 207 211 201 195 193 147 215 211 233 215 236 230 215 212 224 242 248 281 261 224 285 278 209 167 183 172 188 197 217 195 184 178 174 201 236
187 190 191 189 189 196 194 193 193 191 215 192 185 183 196 198 208 259 251 251 252 252 227 237 239 251 274 254 294 305 309 345 124 157 174 185 202 244 233 193 192 193 212
193 189 190 190 192 194 195 202 206 213 213 205 205 180 194 198 211 218 232 239 260 273 246 240 203 256 252 260 218 266 305 331 302 237 184 163 175 211 246 255 206 191 206
192 190 188 189 192 194 200 202 211 221 218 211 201 184 217 197 215 221 214 222 234 254 261 282 261 269 261 269 273 257 251 242 261 277 278 268 227 208 213 225 233 222 202
190 189 186 184 189 191 196 200 209 217 218 219 214 208 211 200 201 201 216 223 234 240 229 241 251 240 267 278 286 285 273 273 270 272 272 260 259 236 227 228 229 220 219
Height
1518 1517 1515 1516 1516 1517 1517 1518 1519 1520 1521 1522 1523 1524 1525 1526 1527 1527 1528 1530 1531 1532 1533 1534 1535 1536 1536 1536 1535 1534 1533 1532 1534 1537 1539 1541 1543 1544 1544 1546 1547 1549 1549
1519 1519 1517 1518 1519 1519 1520 1521 1522 1523 1524 1524 1525 1526 1527 1528 1529 1530 1531 1532 1533 1534 1535 1536 1536 1537 1537 1537 1535 1533 1531 1531 1532 1535 1538 1541 1543 1544 1545 1546 1547 1549 1549
1521 1521 1520 1521 1521 1522 1522 1523 1524 1525 1526 1527 1527 1528 1529 1530 1531 1532 1532 1533 1534 1535 1536 1537 1538 1538 1538 1538 1536 1534 1532 1532 1533 1536 1539 1543 1544 1544 1545 1546 1547 1548 1549
1523 1523 1523 1523 1524 1524 1525 1526 1526 1527 1528 1529 1529 1530 1531 1531 1533 1534 1534 1535 1536 1537 1538 1539 1539 1539 1540 1539 1538 1537 1536 1535 1537 1539 1542 1544 1545 1544 1545 1546 1547 1548 1549
1524 1525 1525 1525 1526 1527 1527 1528 1529 1529 1530 1531 1531 1532 1533 1534 1534 1535 1536 1537 1537 1538 1539 1540 1540 1541 1541 1541 1540 1539 1539 1539 1540 1541 1543 1544 1544 1544 1545 1546 1547 1548 1549
1527 1528 1527 1527 1528 1529 1530 1530 1531 1531 1532 1533 1533 1534 1535 1536 1536 1537 1538 1538 1539 1540 1541 1541 1542 1542 1542 1542 1541 1541 1541 1541 1542 1544 1544 1545 1545 1544 1545 1546 1547 1547 1548
1529 1530 1530 1529 1530 1531 1532 1532 1533 1533 1534 1534 1535 1536 1537 1537 1538 1539 1539 1540 1541 1542 1542 1543 1543 1543 1543 1543 1543 1542 1542 1542 1544 1545 1545 1545 1544 1544 1545 1546 1546 1547 1548
1531 1532 1532 1531 1533 1533 1534 1535 1535 1535 1536 1536 1537 1537 1538 1539 1540 1540 1541 1542 1542 1543 1544 1544 1544 1544 1544 1544 1544 1544 1544 1543 1545 1545 1545 1545 1544 1544 1545 1545 1546 1546 1547
1532 1533 1534 1535 1535 1535 1536 1537 1537 1537 1538 1538 1539 1540 1540 1541 1542 1542 1543 1543 1544 1545 1545 1545 1545 1545 1545 1545 1545 1545 1545 1544 1546 1545 1545 1544 1544 1544 1544 1545 1545 1546 1546
1534 1535 1536 1537 1538 1539 1539 1539 1539 1539 1540 1540 1541 1541 1542 1543 1543 1544 1545 1545 1545 1546 1546 1546 1546 1547 1546 1546 1546 1546 1546 1545 1547 1546 1545 1544 1543 1543 1544 1544 1545 1545 1546
1535 1536 1537 1539 1539 1540 1541 1541 1541 1541 1541 1542 1543 1543 1544 1545 1546 1546 1546 1546 1547 1547 1547 1548 1548 1548 1548 1548 1547 1547 1547 1547 1547 1546 1545 1543 1543 1543 1543 1544 1545 1545 1546
1536 1538 1539 1540 1541 1542 1543 1543 1544 1544 1544 1544 1544 1545 1546 1546 1546 1547 1547 1548 1548 1548 1549 1549 1549 1549 1549 1550 1549 1548 1549 1548 1548 1547 1545 1543 1542 1542 1542 1544 1544 1545 1546
1537 1539 1540 1541 1541 1543 1544 1544 1545 1545 1545 1545 1545 1546 1546 1547 1548 1549 1549 1550 1550 1550 1551 1550 1551 1552 1552 1551 1550 1550 1550 1549 1549 1548 1546 1543 1542 1541 1542 1544 1545 1545 1545
1538 1539 1541 1541 1542 1543 1544 1545 1546 1546 1546 1547 1547 1547 1548 1548 1549 1550 1550 1551 1551 1551 1551 1552 1552 1552 1552 1551 1551 1551 1550 1550 1549 1549 1546 1544 1543 1542 1543 1544 1545 1545 1545
1539 1540 1541 1542 1542 1543 1543 1545 1546 1547 1548 1548 1548 1548 1549 1550 1550 1551 1551 1551 1552 1552 1552 1552 1552 1552 1552 1552 1552 1551 1551 1550 1550 1549 1547 1545 1544 1544 1544 1545 1545 1545 1545
1539 1540 1541 1542 1542 1543 1544 1544 1546 1547 1547 1548 1549 1549 1549 1551 1551 1551 1552 1552 1552 1553 1553 1552 1552 1552 1552 1552 1552 1551 1551 1551 1550 1549 1549 1547 1546 1545 1545 1545 1545 1545 1546
1539 1540 1541 1542 1543 1544 1544 1545 1547 1547 1548 1549 1549 1549 1550 1551 1551 1552 1553 1553 1553 1553 1552 1552 1552 1553 1552 1552 1552 1552 1551 1551 1550 1550 1549 1549 1548 1546 1546 1545 1545 1545 1546
1540 1540 1541 1543 1543 1543 1544 1545 1547 1548 1548 1549 1550 1550 1550 1551 1551 1552 1553 1553 1552 1553 1553 1553 1553 1553 1553 1553 1553 1552 1552 1551 1550 1550 1550 1549 1549 1548 1547 1546 1545 1545 1545
1539 1540 1541 1542 1543 1544 1545 1545 1546 1547 1548 1549 1549 1550 1550 1551 1551 1552 1552 1552 1552 1553 1553 1553 1552 1553 1553 1553 1553 1552 1552 1551 1551 1550 1550 1549 1549 1548 1548 1546 1546 1545 1545
1539 1540 1541 1542 1542 1544 1545 1545 1546 1547 1548 1548 1549 1550 1550 1551 1551 1551 1552 1551 1552 1552 1552 1552 1551 1551 1552 1552 1553 1552 1551 1551 1551 1550 1550 1549 1549 1548 1548 1547 1546 1546 1545
1538 1539 1540 1541 1542 1543 1544 1545 1546 1547 1548 1548 1549 1549 1549 1550 1550 1550 1551 1551 1551 1552 1551 1552 1551 1552 1552 1551 1552 1552 1551 1551 1550 1550 1550 1549 1549 1549 1548 1547 1547 1546 1545
1537 1538 1539 1540 1541 1542 1544 1544 1545 1546 1547 1548 1548 1548 1548 1549 1549 1550 1549 1551 1551 1550 1550 1550 1550 1551 1552 1551 1551 1551 1550 1551 1550 1550 1549 1549 1549 1549 1548 1548 1546 1545 1545
1536 1537 1538 1539 1540 1541 1542 1544 1545 1545 1546 1547 1547 1548 1548 1548 1548 1548 1549 1549 1549 1550 1550 1549 1549 1550 1551 1551 1551 1551 1550 1549 1549 1550 1549 1548 1548 1548 1548 1547 1546 1545 1545
1534 1536 1537 1538 1539 1540 1541 1543 1544 1545 1546 1546 1547 1547 1547 1547 1547 1547 1548 1548 1548 1549 1548 1549 1549 1549 1549 1550 1550 1549 1550 1549 1549 1548 1549 1548 1547 1547 1547 1547 1546 1545 1544
1533 1534 1535 1536 1537 1538 1540 1541 1542 1544 1545 1546 1546 1546 1546 1546 1546 1546 1546 1547 1547 1547 1547 1547 1547 1548 1549 1549 1549 1549 1549 1548 1548 1548 1547 1548 1547 1547 1546 1545 1545 1545 1543
1531 1532 1534 1534 1535 1537 1538 1539 1540 1542 1543 1544 1544 1544 1545 1545 1545 1545 1545 1545 1546 1546 1546 1546 1546 1547 1547 1547 1547 1548 1547 1547 1547 1547 1546 1546 1545 1545 1545 1544 1543 1543 1542